Home   Weather   Chandigarh   Past weeks

Flag for India Past Weather in Chandigarh, Chandigarh, India — Yesterday and Last 2 Weeks

Now
46 °F

Fog.


Feels Like: 46 °F
Forecast: 53 / 74 °F
Wind: No wind

Location: Amritsar Airport

Current Time: Jan 21, 2017 at 5:50:09 am

Latest Report: Jan 21, 2017 at 5:00 am


Visibility: 0 mi

Pressure: 30.09 "Hg

Humidity: 100%

Dew Point: 46 °F

Location of ChandigarhLocation

Past Weather in Chandigarh — Graph

°F

Chandigarh Temperature Yesterday

Maximum temperature yesterday: 66 °F (at 3:00 pm)
Minimum temperature yesterday: 37 °F (at 5:30 am)
Average temperature yesterday: 51 °F

High & Low Weather Summary for the Past Weeks

 TemperatureHumidityPressure
High68 °F (Jan 15, 12:00 pm)100% (Jan 6, 2:30 am)30.36 "Hg (Jan 6, 2:30 am)
Low34 °F (Jan 11, 7:00 am)30% (Jan 11, 3:00 pm)29.86 "Hg (Jan 6, 1:30 pm)
Average50 °F89%30.07 "Hg
* Reported Jan 6 2:30 am — Jan 21 2:30 am, Chandigarh, Weather by CustomWeather, © 2017

Note: Actual official high and low records may vary slightly from our data, if they occured in-between our weather recording intervals... More about our weather records

Advertising

Chandigarh Weather History for the Previous 24 Hours

Scroll right to see more
 ConditionsComfort  
Time TempWeatherWind HumidityBarometerVisibility
2:30 am
Sat, Jan 21
46 °FFog.No wind100%30.12 "Hg1 mi
2:00 am46 °FFog.No wind100%30.12 "Hg1 mi
1:30 am46 °FFog.No wind100%30.12 "Hg1 mi
1:00 am46 °FFog.No wind100%30.15 "Hg1 mi
12:30 am46 °FFog.No wind100%30.15 "Hg1 mi
12:00 am46 °FFog.No wind100%30.15 "Hg2 mi
11:30 pm
Fri, Jan 20
48 °FFog.No wind100%30.15 "Hg2 mi
11:00 pm46 °FFog.No wind100%30.15 "Hg2 mi
10:30 pm48 °FFog.No wind100%30.15 "Hg2 mi
10:00 pm48 °FFog.No wind100%30.15 "Hg2 mi
9:30 pm50 °FFog.No wind100%30.15 "Hg2 mi
9:00 pm50 °FFog.No wind100%30.15 "Hg2 mi
8:30 pm50 °FFog.No wind100%30.15 "Hg2 mi
8:00 pm52 °FFog.No wind100%30.12 "Hg2 mi
7:30 pm54 °FFog.5 mph100%30.12 "Hg2 mi
7:00 pm54 °FFog.No wind100%30.12 "Hg2 mi
6:30 pm57 °FFog.No wind100%30.12 "Hg2 mi
6:00 pm59 °FFog.2 mph94%30.12 "Hg2 mi
5:30 pm63 °FScattered clouds.2 mph73%30.12 "Hg3 mi
5:00 pm64 °FHaze.1 mph68%30.12 "Hg3 mi
4:30 pm66 °FHaze.7 mph56%30.12 "Hg3 mi
4:00 pm66 °FHaze.7 mph56%30.12 "Hg3 mi
3:30 pm66 °FHaze.6 mph56%30.15 "Hg3 mi
3:00 pm66 °FHaze.6 mph52%30.15 "Hg3 mi
2:30 pm64 °FHaze.6 mph56%30.15 "Hg3 mi
2:00 pm64 °FHaze.8 mph60%30.18 "Hg3 mi
1:30 pm64 °FHaze.7 mph64%30.18 "Hg2 mi
12:30 pm61 °FFog.6 mph83%30.21 "Hg2 mi
12:00 pm59 °FFog.6 mph88%30.24 "Hg2 mi
11:30 am55 °FFog.3 mph100%30.24 "Hg2 mi
11:00 am54 °FFog.5 mph100%30.27 "Hg2 mi
10:00 am50 °FFog.6 mph100%30.24 "Hg1 mi
8:30 am37 °FFog.No wind100%30.21 "Hg1 mi
8:00 am37 °FFog.No wind100%30.21 "Hg0 mi
7:30 am37 °FFog.No wind100%30.21 "Hg0 mi
7:00 am39 °FFog.No wind100%30.21 "Hg1 mi
6:30 am37 °FFog.No wind100%30.21 "Hg1 mi
6:00 am39 °FFog.No wind100%30.18 "Hg1 mi
5:30 am37 °FFog.No wind100%30.18 "Hg1 mi
5:00 am39 °FFog.No wind100%30.18 "Hg1 mi
Weather by CustomWeather, © 2017

See weather overviewHow to use our weather pages